Simultaneous Nadir Overpasses (SNOs) Predictions

Prediction of SNOs between NOAA-19 and METOP-C Satellite Orbit:

Table of predicted SNOs for the next 14.0 days since TLE Epoch: 2/17/2024
Index Date (NOAA-19) Time (NOAA-19) Lat,Lon (NOAA-19) SZA (NOAA-19 ) Date (METOP-C) Time (METOP-C) Lat,Lon (METOP-C) SZA (METOP-C ) Distance(km) Time Diff (sec)
1 02/17/2024 06:23:46 -80.50, -68.37 86.60 02/17/2024 06:24:54 -80.51, -68.27 86.57 2.09 68
2 02/17/2024 07:14:44 80.52, 99.22 93.43 02/17/2024 07:15:34 80.52, 99.12 93.43 2.00 50
3 02/17/2024 08:05:43 -80.53, -93.40 86.57 02/17/2024 08:06:15 -80.53, -93.40 86.57 0.36 32
4 02/17/2024 08:56:41 80.55, 74.20 93.46 02/17/2024 08:56:54 80.55, 74.31 93.48 2.19 13
5 02/17/2024 09:47:39 -80.57,-118.07 86.51 02/17/2024 09:47:35 -80.56,-118.21 86.52 2.54 4
6 02/17/2024 10:38:38 80.57, 49.19 93.49 02/17/2024 10:38:15 80.57, 49.18 93.48 0.30 23
7 02/17/2024 11:29:37 -80.58,-143.44 86.52 02/17/2024 11:28:56 -80.58,-143.34 86.52 1.77 41
8 02/17/2024 12:20:34 80.61, 24.53 93.56 02/17/2024 12:19:35 80.61, 24.38 93.53 2.63 59
9 02/28/2024 23:40:14 80.45,-148.17 89.06 02/28/2024 23:41:18 80.45,-148.17 89.08 0.24 64
10 02/29/2024 00:31:10 -80.46, 19.31 90.93 02/29/2024 00:32:00 -80.45, 19.18 90.93 2.49 50
11 02/29/2024 01:22:11 80.47,-173.20 89.09 02/29/2024 01:22:39 80.47,-173.32 89.08 2.28 28
12 02/29/2024 02:13:07 -80.49, -5.73 90.90 02/29/2024 02:13:20 -80.49, -5.64 90.89 1.83 13
13 02/29/2024 03:04:08 80.50, 161.76 89.12 02/29/2024 03:03:59 80.50, 161.87 89.13 1.98 9
14 02/29/2024 03:55:04 -80.51, -30.76 90.88 02/29/2024 03:54:41 -80.51, -30.78 90.89 0.55 23
15 02/29/2024 04:46:04 80.54, 137.08 89.19 02/29/2024 04:45:19 80.54, 137.06 89.17 0.42 45



Historial Predications of SNOs between NOAA-19 and METOP-C
